Find Yaogan Weixing 17

NORAD ID: 39239 Int'l Des: 2013-046 Owner: ZZB Country: CN Constellation: yaogan operational
LEO

Live Position

Loading 3D Globe...

About Yaogan Weixing 17

Description loading...

Upcoming Passes

Passes for default location (London). Set your location on the main map for personalized predictions.

Altitude History

Loading altitude history...

Two-Line Element Set

1 39239U 13046A 26111.81887009 -.00000065 00000-0 25740-4 0 9996
2 39239 63.3868 235.6316 0421265 11.6032 349.4343 13.45499173620702
Epoch: Apr 21, 2026 • Age: 7 hours

Current Status

Altitude 1165.2 km
Velocity 7.24 km/s
Sub-Earth Point -63.50°S, 101.72°W
Launch Date Sep 1, 2013
Age 12.6 years
Type military

Technical Details

Classification Payload
Mass 500.00 kg
Dry Mass 500.00 kg
Total Mass 500.00 kg
Length 0.50 m
Diameter 0.50 m
Span 1.00 m
Shape Box + 2 Pan
Manufacturer CAST
Bus Type JB-8
Phase Status In Orbit
Owner/State ZZB/CN

Most Searched